ASTRA 1G
1 25071U 97076A   03099.00000000  .00000122  00000-0  10000-3 0  3987
2 25071   0.0122 319.8851 0002995  65.1991 190.9189  1.00273184 19635
INMARSAT 3-F5
1 25153U 98006B   03098.00361744  .00000145  00000-0  10000-3 0  8694
2 25153   0.4590 356.5681 0003466  17.2370 208.3425  1.00276027 18984
HOT BIRD 4
1 25237U 98013A   03099.84635997  .00000087  00000-0  10000-3 0  3344
2 25237   0.0316 347.7932 0006645  69.4486  98.0254  1.00270260 19044
NOAA 15
1 25338U 98030A   03104.60553964  .00000195  00000-0  10295-3 0   780
2 25338  98.5474 125.2602 0010816 151.9364 208.2398 14.24271855255635
RESURS O1-N4
1 25394U 98043A   03104.23574542  .00000148  00000-0  83582-4 0  4939
2 25394  98.6215 181.1284 0000983 352.7755   7.3408 14.23899460247310
TMSAT
1 25396U 98043C   03103.23595732 -.00000043  00000-0  00000+0 0  8392
2 25396  98.6179 179.2651 0002159   0.0055   0.1125 14.23528268247165
TECHSAT 1B
1 25397U 98043D   03099.90358545 +.00000116 +00000-0 +70547-4 0 01694
2 25397 098.6139 174.8155 0001732 034.2949 325.8337 14.22972411246656
ASTRA 2A
1 25462U 98050A   03099.00000000  .00000152  00000-0  00000+0 0  5401
2 25462   0.0385 308.7109 0004824 280.8620 355.4582  1.00272094 16935
EUTELSAT W2
1 25491U 98056A   03098.89021750 +.00000107 +00000-0 +00000-0 0 05984
2 25491 000.0249 123.7930 0003338 243.5481 165.8860 01.00275331016549
HOT BIRD 5
1 25495U 98057A   03099.85365163  .00000146  00000-0  00000+0 0  5088
2 25495   0.0280  82.8420 0010247 215.0657 232.9622  1.00274308 16526
SEDSAT 1
1 25509U 98061B   03104.27202490  .00000431  00000-0  76717-4 0  8235
2 25509  31.4295 204.2377 0356934  60.5768 302.9980 14.27483252233135
PAN SAT
1 25520U 98064B   03104.40283875  .00001939  00000-0  93275-4 0  6603
2 25520  28.4627 218.5471 0006129 230.2443 129.7548 15.14176152245908
ISS (ZARYA)
1 25544U 98067A   03104.44047454  .00016643  00000-0  22273-3 0  8910
2 25544  51.6348 340.4225 0006548  20.6391 337.4675 15.58129290251053
ORSTED
1 25635U 99008B   03103.47561358  .00000548  00000-0  14592-3 0  8780
2 25635  96.4601  76.8461 0144828 157.3535 203.4142 14.44924072217729
SUNSAT
1 25636U 99008C   03100.82342612  .00000318  00000-0  90880-4 0  6774
2 25636  96.4615  73.3770 0148721 172.7810 187.5577 14.42996728217205
UOSAT 12
1 25693U 99021A   03104.34773035  .00000022  00000-0  23213-4 0  8758
2 25693  64.5583 203.1117 0025460 313.2790  46.6168 14.76449518214349
FENGYUN 1C
1 25730U 99025A   03104.22639750  .00000054  00000-0  52496-4 0  8116
2 25730  98.6317 126.5684 0013926 203.7979 156.2551 14.11740630202346
ASTRA 1H
1 25785U 99033A   03099.00000000  .00000123  00000-0  10000-3 0  3783
2 25785   0.0122 319.8851 0002995  65.1991 190.9720  1.00273184 13991
TERRA
1 25994U 99068A   03104.24809288  .00000303  00000-0  77326-4 0  8769
2 25994  98.1899 179.5941 0000801  85.1062 275.0217 14.57133042176639
JAWSAT
1 26061U 00004A   03103.85614979  .00000598  00000-0  21591-3 0  8111
2 26061 100.1954 170.9725 0035783 125.9784 234.4721 14.37896456168337
OPAL
1 26063U 00004C   03104.20049986  .00000154  00000-0  73515-4 0  7620
2 26063 100.2025 168.6616 0037260 132.4376 227.9956 14.35506704168221
ASUSAT
1 26065U 00004E   03103.87748203  .00000190  00000-0  85722-4 0  7793
2 26065 100.1991 168.4422 0037894 134.7639 225.6630 14.35536705168179
GOES 11
1 26352U 00022A   03104.47034876 -.00000035  00000-0  10000-3 0  1107
2 26352   0.2767  99.2755 0002882 228.4949 289.7359  1.00271964 10786
EUTELSAT W4
1 26369U 00028A   03103.00201694  .00000151  00000-0  00000+0 0  3726
2 26369   0.0621  25.5365 0012707  38.4042 173.6168  1.00277004 10588
FENGYUN 2B
1 26382U 00032A   03104.26367039 -.00000335  00000-0  00000+0 0  8293
2 26382   0.4224 302.2548 0002013 236.8367 221.9831  1.00284960 10265
EUTELSAT W1
1 26487U 00052A   03101.89585069  .00000066  00000-0  10000-3 0  3821
2 26487   0.0252 145.2618 0003999 234.9951 151.8869  1.00273285  9542
ASTRA 2B
1 26494U 00054A   03099.00000000  .00000152  00000-0  00000+0 0  2614
2 26494   0.0178 354.5658 0005000 302.8402 287.5550  1.00276704  9416
NOAA 16
1 26536U 00055A   03104.57305823 -.00000046  00000-0 -10084-5 0  2895
2 26536  98.9098  52.4770 0010847 145.9495 214.2375 14.11935421131919
SAUDISAT 1A
1 26545U 00057A   03102.96124336  .00001168  00000-0  17353-3 0  4379
2 26545  64.5578 227.8031 0048120 230.1938 129.4934 14.79127327137111
UNISAT
1 26547U 00057C   03102.85085076  .00002011  00000-0  27743-3 0  4570
2 26547  64.5568 230.1558 0055273 231.6504 127.9624 14.79982922137079
TIUNGSAT 1
1 26548U 00057D   03102.76549709  .00001485  00000-0  20487-3 0  4403
2 26548  64.5569 220.6969 0041199 230.6457 129.0975 14.81459216137248
SAUDISAT 1B
1 26549U 00057E   03103.44177111  .00001247  00000-0  18789-3 0  7292
2 26549  64.5521 230.7162 0052690 229.3026 130.3476 14.78060002137102
AMSAT OSCAR 40
1 26609U 00072B   03101.06918723 -.00000337  00000-0  10000-3 0  3243
2 26609   8.4684  54.7135 7954739 162.8251 262.9704  1.25597299 11235
GOES 12
1 26871U 01031A   03104.24390527 -.00000251  00000-0  10000-3 0  9150
2 26871   0.1927 274.9403 0001146  67.1406 229.8945  1.00349550  6383
PCSAT
1 26931U 01043C   03104.53216193  .00000116  00000-0  78236-4 0  4495
2 26931  67.0470 114.1132 0005860 274.7070  85.3359 14.29146843 80201
SAPPHIRE
1 26932U 01043D   03103.87375181  .00000106  00000-0  74062-4 0  4431
2 26932  67.0538 115.5013 0003981 260.2825  99.7826 14.29317081 80134
ENVISAT
1 27386U 02009A   03104.24572362 -.00000315  00000-0 -10051-3 0  9986
2 27386  98.5478 172.0200 0000883  68.3398 291.7884 14.32240852 58572
IDEFIX/ARIANE 42P
1 27422U 02021B   03104.53611778  .00000225  00000-0  10845-3 0  2799
2 27422  98.6870 183.4595 0012406 354.2253   5.8784 14.28002003 49307
FENGYUN 1D
1 27431U 02024B   03103.84069117 -.00000108  00000-0 -37356-4 0  2608
2 27431  98.7612 151.3411 0014884 334.4347  25.6085 14.09182018 47013
NOAA 17
1 27453U 02032A   03104.60925387  .00000269  00000-0  13824-3 0  3741
2 27453  98.7459 175.5026 0011615 193.3376 166.7497 14.23329382 41795
HOT BIRD 6
1 27499U 02038A   03099.84635997  .00000087  00000-0  10000-3 0   727
2 27499   0.0187 319.8204 0007377 106.6637  88.7730  1.00270329  2334
RUBIN 2
1 27605U 02058A   03104.22419330  .00000530  00000-0  10612-3 0  1079
2 27605  64.5511  31.2616 0034826  88.4094 272.0994 14.71460448 16851
